Powrót do katalogu

STARLINK-35965

AktywnyŁącznośćVLEO
NORAD 66631·PAYLOAD·🇺🇸 United States

Wystrzelony Nov 23, 2025 z Vandenberg Space Force Base

Loading…

Następne Przeloty (najbliższe 24 godziny)

TLE

ŚwieżeSource: CelesTrak SupGP

Epoka: Sep 14, 2026, 21:17 UTC

1 66631C 25271Q   26257.88729167 -.00012042  00000+0 -35592-3 0  2573
2 66631  53.1593 335.9881 0001108  85.7299   4.4112 15.34383503    15

Śledź STARLINK-35965 w czasie rzeczywistym z AllMySat

Download on the App Store